[[{"header":{"parameterUnit":"m.s-1","parameterCategory":1,"la1":30.2991,"la2":30.254,"lo1":-89.0895,"lo2":-89.0444,"dx":0.0017,"dy":0.0017,"nx":28,"ny":28,"refTime":"2022-11-03T15:00:00:Z","depth":0,"parameterNumber":2,"parameterNumberName":"U-component_of_WINDS"},"data":[0,0,0,0,0,0,0,0,0,0,0,0,0,0,0,0,0,0,0,0,0,0,0,0,0,0,0,0,0,0,0,0,0,0,0,0,0,0,0,0,0,0,0,0,0,0,0,0,0,0,0,0,0,0,0,0,0,0,-0.9986,-0.9986,0,-1.0047,-1.0048,-1.0049,-1.004,-1.0039,-1.0038,-1.0037,-1.01,-1.0103,-1.0105,0,0,0,0,0,0,0,0,0,0,0,0,0,-0.9859,-0.9862,-0.9985,-0.9986,-0.9987,-1.0047,-1.0048,-1.0049,-1.004,-1.0039,-1.0037,-1.0036,-1.0099,-1.0102,-1.0105,0,0,0,0,0,0,0,0,0,0,0,0,0,-0.9917,-0.9862,-0.9985,-0.999,-0.9991,-1.0047,-1.0048,-1.0049,-1.004,-1.0039,-1.0037,-1.0036,-1.0098,-1.0102,-1.0106,-1.0162,0,0,-1.0118,-1.012,0,0,0,0,0,0,0,0,-0.9914,-0.9922,-0.9988,-0.999,-0.9991,-1.0034,-1.0027,-1.0087,-1.0041,-1.0021,-1.0037,-1.0035,-1.0079,-1.0085,-1.01,-1.0165,-1.0167,-1.0118,-1.0121,-1.0123,-1.0124,0,0,0,0,0,0,0,-0.991,-0.9919,-1.001,-0.9989,-0.9991,-0.9989,-0.9995,-1.0038,-1.0058,-1.0023,-1.0022,-1.003,-1.008,-1.0096,-1.0101,-1.0168,-1.0118,-1.0122,-1.0124,-1.0126,-1.0281,-1.0283,0,0,0,0,0,0,-0.9904,-0.9916,-1.0008,-1.0012,-0.9948,-0.9992,-0.9999,-1.0022,-1.0058,-1.0062,-1.0031,-1.0029,-1.009,-1.0097,-1.0103,-1.0171,-1.0122,-1.0126,-1.0128,-1.028,-1.0282,-1.0284,0,0,0,0,0,0,-0.9902,-0.9913,-1.0005,-0.9964,-0.9975,-0.9996,-1.0021,-1.0024,-1.004,-1.0064,-1.0068,-1.0044,-1.0089,-1.0098,-1.0147,-1.0173,-1.0128,-1.0132,-1.0278,-1.028,-1.0283,-1.0306,0,0,0,0,0,0,-0.9898,-0.9912,-0.9933,-0.9964,-0.9977,-1.0048,-1.0023,-1.0026,-1.0047,-1.0045,-1.0077,-1.0081,-1.0088,-1.0141,-1.0151,-1.0178,-1.0135,-1.0275,-1.0279,-1.0282,-1.0303,-1.0309,-1.0315,0,0,0,0,0,-0.9894,-0.9938,-0.9935,-0.9946,-1.0005,-1.005,-1.0057,-1.0065,-1.0049,-1.0071,-1.0086,-1.008,-1.0168,-1.0146,-1.0157,-1.0185,-1.0274,-1.0278,-1.0282,-1.0301,-1.0308,-1.0314,0,0,0,0,0,0,-0.9909,-0.9942,-0.9939,-0.9994,-1.0019,-1.0048,-1.0076,-1.0073,-1.0103,-1.01,-1.0108,-1.0116,-1.0166,-1.018,-1.0155,-1.0241,-1.0219,-1.0225,-1.023,-1.0237,-1.0242,-1.0238,-1.0138,0,0,0,0,0,-0.9919,-0.9953,-0.998,-1.0026,-1.0039,-1.0055,-1.0075,-1.0079,-1.0105,-1.0116,-1.0135,-1.0161,-1.0194,-1.0216,-1.0249,-1.0305,-1.0312,-1.033,-1.0336,-1.034,-1.0346,-1.0376,-1.0384,-1.0297,-1.0297,-1.0296,0,0,-0.994,-0.9962,-0.9983,-1.0029,-1.005,-1.0084,-1.0064,-1.0102,-1.0128,-1.0122,-1.0169,-1.0184,-1.0214,-1.0267,-1.0291,-1.0281,-1.0371,-1.0345,-1.0349,-1.0352,-1.0381,-1.0389,-1.0397,-1.0299,-1.0299,-1.0298,0,0,-0.9996,-1.0016,-1.0056,-1.0077,-1.0107,-1.0118,-1.0128,-1.0157,-1.0167,-1.0215,-1.0211,-1.0242,-1.0299,-1.0321,-1.0339,-1.0402,-1.0397,-1.0412,-1.0442,-1.0472,-1.0479,-1.0485,-1.0507,-1.0515,-1.0418,-1.0418,-1.0418,0,-1.0018,-1.007,-1.0078,-1.0116,-1.0136,-1.0132,-1.0173,-1.0193,-1.0232,-1.0246,-1.0234,-1.0306,-1.0326,-1.0384,-1.0399,-1.0414,-1.0425,-1.0409,-1.0477,-1.0483,-1.0489,-1.0511,-1.0519,-1.0419,-1.0419,-1.0419,-1.0419,0,-1.0096,-1.0132,-1.0161,-1.0199,-1.0223,-1.0263,-1.0276,-1.0299,-1.03,-1.0312,-1.0361,-1.0384,-1.0421,-1.0435,-1.0437,-1.0493,-1.0485,-1.0475,-1.0453,-1.0499,-1.0519,-1.0527,-1.0422,-1.0421,-1.0421,-1.042,0,0,-1.0163,-1.0205,-1.0215,-1.0233,-1.0266,-1.0294,-1.0333,-1.0369,-1.0389,-1.0416,-1.0449,-1.0498,-1.0488,-1.0509,-1.0513,-1.0539,-1.0587,-1.0526,-1.0526,-1.0536,-1.065,-1.0658,-1.0667,-1.0584,-1.0586,-1.0587,-1.0648,0,-1.0222,-1.0291,-1.0299,-1.036,-1.0394,-1.039,-1.0424,-1.0448,-1.046,-1.049,-1.0504,-1.0538,-1.0523,-1.0535,-1.0561,-1.0576,-1.061,-1.0572,-1.0615,-1.0616,-1.0608,-1.0678,-1.0686,-1.0742,-1.0656,-1.0657,-1.0658,0,-1.03,-1.0329,-1.0395,-1.0423,-1.0437,-1.0468,-1.0501,-1.053,-1.0557,-1.0564,-1.0587,-1.0587,-1.0627,-1.0604,-1.0659,-1.0632,-1.065,-1.066,-1.0663,-1.0667,-1.064,-1.0684,-1.076,-1.0769,-1.0671,-1.067,-1.0669,0,-1.0343,-1.0399,-1.0445,-1.0459,-1.0494,-1.0515,-1.053,-1.0556,-1.0577,-1.0606,-1.0619,-1.0653,-1.0671,-1.0697,-1.0706,-1.0688,-1.0761,-1.0738,-1.0768,-1.0767,-1.0783,-1.0782,-1.0863,-1.0795,-1.0795,-1.0795,-1.0794,0,-1.0407,-1.0447,-1.0464,-1.0493,-1.0537,-1.0545,-1.0589,-1.0603,-1.0626,-1.0656,-1.0655,-1.0684,-1.0695,-1.0726,-1.0734,-1.0778,-1.0786,-1.0793,-1.0794,-1.0793,-1.0792,-1.0805,-1.0801,-1.0797,-1.0796,-1.0796,-1.0796,0,-1.0463,-1.0476,-1.0525,-1.0554,-1.0562,-1.0593,-1.0617,-1.0645,-1.0656,-1.0695,-1.0705,-1.0723,-1.0759,-1.0771,-1.0814,-1.0819,-1.0871,-1.0869,-1.0862,-1.0862,-1.0891,-1.0888,-1.0983,-1.0996,-1.0919,-1.092,-1.092,0,-1.0503,-1.0534,-1.0565,-1.0586,-1.0602,-1.0635,-1.0656,-1.0665,-1.0688,-1.072,-1.0744,-1.0779,-1.0808,-1.0866,-1.0883,-1.0916,-1.0915,-1.0946,-1.092,-1.0917,-1.0915,-1.0913,-1.0916,-1.0951,-1.0952,-1.0952,-1.0953,0,-1.0574,-1.0578,-1.0609,-1.0643,-1.0668,-1.0695,-1.072,-1.0737,-1.075,-1.0775,-1.0812,-1.0834,-1.0878,-1.0914,-1.0948,-1.0963,-1.096,-1.0961,-1.0969,-1.0968,-1.0963,-1.0966,-1.0875,-1.0959,-1.0958,-1.0958,-1.0957,-1.0957,-1.0623,-1.065,-1.0676,-1.071,-1.073,-1.0754,-1.0781,-1.0796,-1.0827,-1.0864,-1.0867,-1.0906,-1.0932,-1.0977,-1.0994,-1.1025,-1.1017,-1.1029,-1.1032,-1.1035,-1.1037,-1.0958,-1.1031,-1.1031,-1.1031,-1.1031,-1.1031,0,-1.0693,-1.0709,-1.0741,-1.0777,-1.0804,-1.0799,-1.0827,-1.085,-1.0884,-1.0909,-1.0937,-1.0979,-1.1013,-1.1033,-1.1067,-1.1088,-1.1087,-1.1096,-1.1095,-1.1098,-1.1043,-1.1032,-1.1096,-1.1096,-1.1096,-1.1096,-1.1096,-1.1096,-1.0733,-1.0778,-1.0786,-1.0841,-1.0857,-1.0896,-1.0912,-1.0934,-1.0953,-1.1,-1.1029,-1.1041,-1.1063,-1.1099,-1.113,-1.1135,-1.1147,-1.1157,-1.1161,-1.1109,-1.1102,-1.1096,-1.1086,-1.116,-1.116,-1.1214,-1.1214,-1.1215]},{"header":{"parameterUnit":"m.s-1","parameterCategory":1,"la1":30.2991,"la2":30.254,"lo1":-89.0895,"lo2":-89.0444,"dx":0.0017,"dy":0.0017,"nx":28,"ny":28,"refTime":"2022-11-03T15:00:00:Z","depth":0,"parameterNumber":3,"parameterNumberName":"V-component_of_WINDS"},"data":[0,0,0,0,0,0,0,0,0,0,0,0,0,0,0,0,0,0,0,0,0,0,0,0,0,0,0,0,0,0,0,0,0,0,0,0,0,0,0,0,0,0,0,0,0,0,0,0,0,0,0,0,0,0,0,0,0,0,-3.4325,-3.4326,0,-3.4409,-3.441,-3.4411,-3.4389,-3.4388,-3.4386,-3.4385,-3.4465,-3.4469,-3.4472,0,0,0,0,0,0,0,0,0,0,0,0,0,-3.414,-3.4143,-3.4325,-3.4326,-3.4327,-3.4409,-3.441,-3.4411,-3.439,-3.4388,-3.4386,-3.4384,-3.4464,-3.4468,-3.4473,0,0,0,0,0,0,0,0,0,0,0,0,0,-3.4221,-3.4144,-3.4325,-3.4326,-3.4327,-3.4409,-3.441,-3.4412,-3.439,-3.4388,-3.4385,-3.4383,-3.4463,-3.4468,-3.4473,-3.4557,0,0,-3.449,-3.4493,0,0,0,0,0,0,0,0,-3.4217,-3.4228,-3.4325,-3.4326,-3.4327,-3.4386,-3.4374,-3.446,-3.4391,-3.4366,-3.4385,-3.4382,-3.4441,-3.4448,-3.4469,-3.4561,-3.4564,-3.4491,-3.4494,-3.4496,-3.4498,0,0,0,0,0,0,0,-3.4211,-3.4224,-3.4358,-3.4326,-3.4328,-3.4321,-3.433,-3.439,-3.4416,-3.4368,-3.4367,-3.4377,-3.4441,-3.4464,-3.4471,-3.4565,-3.4491,-3.4495,-3.4499,-3.4501,-3.4729,-3.4732,0,0,0,0,0,0,-3.4205,-3.422,-3.4355,-3.436,-3.4265,-3.4326,-3.4336,-3.437,-3.4415,-3.442,-3.4379,-3.4376,-3.4455,-3.4464,-3.4473,-3.4574,-3.4496,-3.4502,-3.4505,-3.4726,-3.473,-3.4733,0,0,0,0,0,0,-3.4201,-3.4218,-3.4352,-3.429,-3.4307,-3.4332,-3.437,-3.4373,-3.4396,-3.4424,-3.4428,-3.4398,-3.4454,-3.4465,-3.4536,-3.4576,-3.4504,-3.4509,-3.4723,-3.4727,-3.4731,-3.4776,0,0,0,0,0,0,-3.4196,-3.4216,-3.425,-3.4291,-3.431,-3.4416,-3.4372,-3.4376,-3.4406,-3.4402,-3.4443,-3.4447,-3.4453,-3.4528,-3.4542,-3.4583,-3.4513,-3.4719,-3.4725,-3.473,-3.4771,-3.4781,-3.4789,0,0,0,0,0,-3.419,-3.4258,-3.4251,-3.4268,-3.4352,-3.4418,-3.4428,-3.4435,-3.4409,-3.4442,-3.446,-3.4446,-3.457,-3.4536,-3.4551,-3.4594,-3.4717,-3.4723,-3.4729,-3.4766,-3.4779,-3.4789,0,0,0,0,0,0,-3.4218,-3.4263,-3.4257,-3.434,-3.4376,-3.4414,-3.4456,-3.4448,-3.449,-3.4485,-3.449,-3.4499,-3.4572,-3.459,-3.4551,-3.4677,-3.4639,-3.4649,-3.4662,-3.4674,-3.4683,-3.4677,-3.4518,0,0,0,0,0,-3.4235,-3.4286,-3.4321,-3.4392,-3.441,-3.443,-3.4459,-3.4461,-3.4497,-3.4511,-3.4535,-3.4569,-3.4615,-3.4646,-3.469,-3.4773,-3.4781,-3.481,-3.4819,-3.4827,-3.4835,-3.488,-3.4893,-3.4753,-3.4753,-3.4753,0,0,-3.4268,-3.4299,-3.4331,-3.4398,-3.4426,-3.4477,-3.4443,-3.4498,-3.4536,-3.4519,-3.4588,-3.4606,-3.4644,-3.4722,-3.4757,-3.4739,-3.4875,-3.4835,-3.4841,-3.4844,-3.4887,-3.4901,-3.4912,-3.4757,-3.4756,-3.4756,0,0,-3.4356,-3.4385,-3.4447,-3.4476,-3.4519,-3.4532,-3.4546,-3.4586,-3.4598,-3.4668,-3.4657,-3.47,-3.4781,-3.4809,-3.4833,-3.4932,-3.492,-3.4946,-3.4994,-3.5038,-3.5049,-3.5059,-3.5093,-3.5106,-3.4954,-3.4954,-3.4954,0,-3.4392,-3.4471,-3.4479,-3.4536,-3.4566,-3.4555,-3.4617,-3.4644,-3.4698,-3.4718,-3.4698,-3.4799,-3.4823,-3.4907,-3.4931,-3.4951,-3.4967,-3.4941,-3.5047,-3.5057,-3.5066,-3.5099,-3.5112,-3.4957,-3.4956,-3.4956,-3.4956,0,-3.4512,-3.4567,-3.4612,-3.4667,-3.4701,-3.4761,-3.4776,-3.481,-3.4809,-3.4824,-3.4894,-3.4924,-3.4974,-3.4994,-3.4993,-3.5077,-3.5065,-3.5046,-3.5008,-3.5082,-3.5113,-3.5126,-3.4961,-3.496,-3.4959,-3.4958,0,0,-3.462,-3.468,-3.4696,-3.4721,-3.4768,-3.481,-3.4868,-3.4919,-3.4947,-3.4985,-3.5033,-3.5101,-3.5084,-3.5112,-3.5114,-3.5153,-3.5228,-3.5129,-3.5129,-3.5146,-3.5322,-3.5336,-3.5351,-3.5221,-3.5223,-3.5225,-3.5319,0,-3.4712,-3.4817,-3.4826,-3.4919,-3.4969,-3.496,-3.501,-3.5043,-3.5058,-3.5101,-3.5117,-3.5166,-3.5139,-3.5156,-3.5194,-3.5211,-3.5264,-3.5204,-3.5264,-3.5266,-3.5255,-3.5368,-3.5383,-3.547,-3.5331,-3.5333,-3.5335,0,-3.4833,-3.4877,-3.4976,-3.5016,-3.5037,-3.5083,-3.513,-3.5172,-3.5209,-3.5217,-3.5249,-3.5246,-3.5304,-3.5264,-3.5343,-3.5303,-3.5328,-3.534,-3.5343,-3.5349,-3.5305,-3.5376,-3.5498,-3.5511,-3.5354,-3.5353,-3.5351,0,-3.4901,-3.4985,-3.5055,-3.5076,-3.5125,-3.5157,-3.5178,-3.5213,-3.5243,-3.5284,-3.5303,-3.535,-3.5375,-3.541,-3.5419,-3.539,-3.5498,-3.5459,-3.5505,-3.5505,-3.5528,-3.5526,-3.5655,-3.5544,-3.5544,-3.5544,-3.5543,0,-3.5003,-3.5064,-3.5086,-3.513,-3.5197,-3.5206,-3.5272,-3.5291,-3.5322,-3.5367,-3.5361,-3.5403,-3.5412,-3.5456,-3.5463,-3.5527,-3.5538,-3.5545,-3.5546,-3.5546,-3.5545,-3.5562,-3.5556,-3.5547,-3.5546,-3.5546,-3.5545,0,-3.5091,-3.5109,-3.5184,-3.5225,-3.5236,-3.5284,-3.5317,-3.5358,-3.5372,-3.543,-3.5443,-3.5465,-3.5516,-3.5529,-3.5589,-3.5594,-3.5669,-3.5665,-3.5658,-3.5657,-3.5702,-3.5698,-3.5847,-3.5866,-3.5742,-3.5744,-3.5745,0,-3.5154,-3.5201,-3.5247,-3.5278,-3.5301,-3.5351,-3.5382,-3.5393,-3.5425,-3.5471,-3.5505,-3.5556,-3.5597,-3.5679,-3.5699,-3.5744,-3.5741,-3.579,-3.5747,-3.5745,-3.5741,-3.5738,-3.5742,-3.5797,-3.5799,-3.58,-3.5801,0,-3.5265,-3.5272,-3.5318,-3.5368,-3.5406,-3.5445,-3.5482,-3.5508,-3.5523,-3.5559,-3.5612,-3.5644,-3.5707,-3.5757,-3.5803,-3.5822,-3.5814,-3.5814,-3.5827,-3.5827,-3.5821,-3.5825,-3.5679,-3.581,-3.5809,-3.5809,-3.5808,-3.5808,-3.5342,-3.5384,-3.5423,-3.5475,-3.5504,-3.5539,-3.558,-3.56,-3.5645,-3.5698,-3.5701,-3.5758,-3.5793,-3.5855,-3.5877,-3.5921,-3.5906,-3.5925,-3.5929,-3.5934,-3.5938,-3.5814,-3.5929,-3.5929,-3.5929,-3.5929,-3.5928,0,-3.5453,-3.5478,-3.5525,-3.5579,-3.5619,-3.561,-3.5651,-3.5685,-3.5736,-3.577,-3.5812,-3.5872,-3.5921,-3.5945,-3.5993,-3.6023,-3.602,-3.6035,-3.6033,-3.6037,-3.5949,-3.5933,-3.6037,-3.6037,-3.6036,-3.6036,-3.6036,-3.6036,-3.5515,-3.5584,-3.5596,-3.5679,-3.5703,-3.5761,-3.5785,-3.5817,-3.5845,-3.5914,-3.5955,-3.5971,-3.6001,-3.605,-3.6094,-3.61,-3.6117,-3.6134,-3.6138,-3.6054,-3.6043,-3.6033,-3.6018,-3.6138,-3.6138,-3.6223,-3.6223,-3.6224]}]]